Portada
METAR-TAF:

METAR-TAF

Aeropuertos :

Nebraska City Municipal Airport

Nebraska City, Nebraska, Estados Unidos

latitud: 40-36N, longitud: 095-51W, altitud: 354 m

Observación

El informe se hizo hace 26 minutos, a las 06:35 UTC
Viento 14 kt del sur-sureste con ráfagas de 17 kt
Temperatura 27°C
Humedad 89%
Presión 1011 hPa
Visibilidad: 16.1 km
Cielo despejado

METAR: KAFK 070635Z AUTO 16014G17KT 10SM CLR 27/25 A2986 RMK AO2 T02710250

Hora: 02:01 (07:01 UTC)


TAF: falta

Observaciones y pronósticos meteorológicos de más de 4000 aeropuertos (mensajes METAR y TAF).

Los puntos amarillos y rojos representan las estaciones disponibles.

Ponga el ratón en el punto deseado para ver el nombre de la estación.

Haga clic para ver las observaciones y los pronósticos meteorológicos.

Para cambiar el mapa : haga clic en los botones verdes con una cruz de color negro para hacer un zoom, en el botón verde con un guión para alejar o en las flechas verdes para mapas adyacentes.


METAR-TAF: